Temp
-10 -10 -10 -10 -10 -9 -9 -9 -9 -9 -9 -9 -9 -8 -8 -8 -8 -8 -7 -7 -7 -7 -7 -8 -8 -8 -8 -8 -8 -8 -8 -8 -8 -8 -7 -7 -7 -7 -7 -7 -7 -7 -7 -7 -7 -7 -7 -7 -7
-11 -10 -10 -10 -10 -9 -9 -10 -9 -9 -9 -9 -9 -8 -8 -8 -8 -7 -8 -7 -7 -7 -8 -8 -8 -8 -8 -8 -8 -8 -8 -8 -8 -8 -8 -7 -7 -7 -7 -7 -7 -7 -7 -7 -7 -7 -7 -7 -7
-11 -11 -11 -10 -10 -9 -10 -10 -9 -9 -9 -9 -9 -8 -8 -8 -8 -8 -8 -8 -8 -8 -8 -8 -8 -8 -8 -8 -8 -8 -8 -8 -8 -8 -7 -7 -7 -7 -7 -7 -7 -7 -7 -7 -7 -7 -7 -7 -7
-11 -11 -11 -10 -10 -10 -10 -10 -8 -9 -9 -9 -9 -8 -8 -8 -8 -8 -8 -8 -8 -8 -8 -8 -8 -8 -8 -8 -8 -8 -8 -8 -8 -8 -8 -7 -7 -7 -7 -7 -7 -7 -7 -7 -7 -7 -8 -8 -8
-11 -11 -11 -11 -10 -11 -11 -10 -9 -10 -9 -9 -8 -8 -8 -8 -8 -8 -8 -8 -8 -8 -8 -8 -8 -8 -8 -8 -8 -8 -8 -8 -8 -8 -8 -7 -7 -7 -7 -7 -7 -7 -7 -8 -8 -8 -8 -8 -8
-11 -11 -11 -10 -11 -11 -11 -10 -10 -10 -10 -9 -8 -8 -8 -8 -8 -8 -8 -8 -8 -8 -8 -8 -8 -8 -8 -8 -8 -8 -8 -8 -8 -8 -8 -7 -7 -7 -8 -8 -8 -8 -8 -8 -8 -8 -8 -8 -9
-12 -11 -11 -11 -11 -11 -10 -10 -10 -10 -10 -11 -9 -8 -8 -8 -8 -9 -8 -9 -8 -9 -9 -9 -9 -9 -9 -9 -9 -8 -8 -8 -8 -8 -8 -8 -8 -8 -8 -8 -8 -8 -8 -8 -8 -9 -9 -9 -9
-12 -12 -11 -11 -11 -11 -10 -10 -10 -10 -10 -10 -9 -8 -9 -9 -9 -9 -9 -9 -9 -9 -9 -9 -9 -9 -9 -9 -9 -9 -8 -8 -8 -8 -8 -8 -8 -8 -8 -8 -8 -8 -9 -9 -9 -9 -9 -9 -9
-12 -11 -11 -11 -11 -11 -10 -10 -10 -10 -10 -10 -10 -9 -9 -9 -9 -9 -9 -9 -9 -9 -9 -9 -9 -9 -9 -9 -9 -9 -9 -8 -8 -8 -8 -8 -8 -8 -8 -8 -9 -9 -9 -9 -9 -9 -9 -9 -9
-12 -11 -11 -12 -11 -11 -10 -10 -10 -10 -10 -10 -9 -9 -9 -9 -9 -9 -9 -9 -9 -9 -9 -9 -9 -9 -9 -9 -9 -9 -9 -8 -8 -8 -8 -8 -8 -8 -8 -8 -9 -9 -9 -9 -9 -9 -9 -9 -9
-12 -12 -12 -12 -12 -11 -10 -10 -11 -10 -9 -9 -9 -9 -9 -9 -9 -9 -9 -9 -9 -9 -9 -9 -9 -9 -9 -9 -9 -9 -9 -9 -8 -8 -8 -8 -8 -8 -8 -8 -9 -9 -10 -10 -10 -10 -10 -10 -9
-12 -12 -13 -12 -12 -11 -10 -11 -11 -10 -9 -9 -9 -9 -9 -9 -9 -9 -9 -9 -9 -9 -9 -9 -9 -9 -9 -9 -9 -9 -9 -9 -9 -8 -8 -8 -8 -8 -8 -8 -9 -9 -10 -10 -10 -10 -10 -10 -9
-12 -13 -12 -12 -11 -11 -11 -11 -11 -10 -10 -9 -9 -9 -9 -9 -9 -9 -9 -10 -9 -9 -9 -9 -9 -10 -9 -10 -9 -9 -9 -9 -9 -9 -9 -8 -8 -8 -8 -8 -9 -9 -9 -10 -10 -9 -10 -10 -9
-13 -13 -12 -12 -11 -11 -11 -11 -11 -10 -10 -10 -9 -9 -9 -9 -9 -9 -10 -10 -9 -9 -10 -9 -10 -10 -10 -10 -9 -9 -9 -9 -9 -9 -9 -9 -9 -9 -9 -9 -9 -9 -9 -10 -10 -10 -10 -10 -9
-14 -13 -12 -12 -12 -12 -11 -11 -10 -11 -10 -10 -9 -9 -9 -9 -9 -9 -10 -9 -9 -10 -9 -10 -10 -10 -9 -10 -10 -9 -9 -9 -9 -9 -9 -9 -9 -9 -9 -9 -9 -9 -10 -10 -10 -10 -10 -10 -10
-13 -12 -12 -12 -12 -12 -12 -12 -11 -11 -10 -10 -9 -9 -9 -9 -9 -9 -9 -9 -9 -9 -10 -10 -10 -10 -10 -10 -9 -9 -9 -9 -9 -9 -9 -9 -9 -9 -9 -9 -10 -10 -10 -10 -10 -10 -10 -10 -10
-12 -12 -12 -12 -12 -12 -12 -11 -11 -11 -10 -10 -10 -9 -9 -9 -10 -10 -9 -9 -10 -10 -10 -10 -10 -10 -10 -10 -10 -9 -9 -9 -9 -9 -9 -9 -9 -9 -10 -10 -10 -10 -10 -10 -10 -10 -10 -10 -11
-12 -12 -13 -12 -12 -12 -12 -11 -11 -11 -10 -10 -10 -9 -10 -10 -10 -10 -10 -10 -10 -10 -10 -10 -10 -10 -10 -10 -10 -10 -9 -9 -10 -9 -9 -9 -9 -10 -10 -10 -10 -10 -10 -11 -11 -11 -11 -11 -11
-14 -14 -14 -13 -12 -12 -12 -12 -12 -11 -11 -10 -10 -10 -10 -10 -10 -10 -10 -10 -10 -10 -10 -10 -10 -10 -10 -10 -10 -10 -10 -10 -10 -10 -10 -9 -10 -10 -10 -10 -10 -11 -11 -11 -11 -11 -11 -12 -12
-14 -15 -14 -12 -13 -13 -13 -12 -12 -11 -11 -10 -10 -10 -10 -10 -10 -10 -10 -10 -10 -10 -11 -11 -10 -10 -10 -10 -10 -10 -10 -10 -10 -10 -10 -10 -10 -10 -10 -11 -11 -11 -11 -11 -12 -12 -12 -13 -13
-15 -15 -14 -13 -13 -13 -13 -12 -12 -11 -11 -11 -10 -10 -10 -10 -10 -10 -10 -10 -11 -11 -11 -11 -10 -10 -10 -10 -10 -10 -10 -10 -10 -10 -10 -10 -10 -10 -11 -11 -11 -11 -11 -12 -12 -13 -13 -13 -14
-15 -14 -13 -13 -13 -13 -13 -12 -12 -12 -11 -11 -11 -10 -10 -11 -11 -11 -11 -11 -11 -11 -11 -11 -11 -11 -10 -10 -10 -10 -10 -10 -10 -10 -10 -11 -11 -11 -11 -11 -11 -12 -12 -12 -12 -13 -14 -15 -16
-16 -15 -14 -14 -14 -13 -13 -13 -12 -12 -11 -11 -11 -11 -11 -11 -11 -11 -11 -11 -11 -11 -11 -11 -11 -11 -11 -11 -11 -10 -11 -10 -10 -11 -11 -11 -11 -11 -12 -12 -13 -12 -13 -13 -13 -14 -15 -16 -16
-17 -16 -15 -15 -14 -14 -13 -13 -12 -12 -12 -11 -11 -11 -12 -12 -11 -12 -12 -12 -12 -12 -11 -11 -11 -11 -11 -11 -11 -11 -11 -11 -11 -11 -11 -11 -12 -12 -12 -13 -13 -13 -14 -14 -14 -15 -16 -16 -16
-17 -17 -16 -15 -14 -13 -13 -13 -12 -12 -12 -12 -12 -12 -12 -12 -12 -12 -12 -12 -12 -12 -12 -11 -11 -11 -11 -11 -11 -11 -11 -11 -12 -11 -12 -12 -12 -13 -13 -13 -13 -14 -14 -14 -15 -16 -16 -16 -16
-17 -17 -16 -15 -14 -13 -13 -13 -12 -12 -12 -12 -12 -12 -12 -12 -12 -12 -12 -12 -12 -12 -12 -11 -11 -11 -11 -11 -12 -12 -12 -12 -12 -12 -12 -12 -13 -14 -13 -13 -14 -14 -15 -15 -15 -16 -16 -16 -16
-17 -17 -16 -15 -14 -14 -13 -13 -13 -13 -12 -12 -13 -13 -13 -13 -13 -13 -12 -12 -12 -12 -12 -12 -12 -12 -12 -12 -12 -12 -12 -12 -13 -13 -13 -13 -14 -13 -13 -14 -14 -14 -15 -15 -16 -16 -16 -16 -16
-17 -16 -16 -15 -15 -14 -14 -13 -13 -13 -13 -13 -13 -13 -13 -13 -12 -12 -12 -12 -12 -12 -12 -12 -12 -12 -13 -13 -13 -12 -13 -13 -13 -13 -14 -14 -14 -13 -13 -14 -14 -15 -16 -16 -16 -16 -16 -16 -16
-16 -16 -15 -15 -14 -14 -14 -13 -13 -13 -13 -13 -13 -13 -13 -13 -13 -13 -12 -12 -12 -12 -12 -13 -13 -13 -13 -13 -13 -13 -13 -14 -14 -14 -14 -14 -14 -14 -14 -14 -14 -16 -16 -16 -16 -16 -16 -16 -16
-16 -15 -15 -15 -14 -14 -14 -13 -13 -13 -13 -13 -13 -13 -13 -13 -12 -12 -12 -13 -13 -13 -13 -13 -13 -13 -13 -13 -13 -13 -14 -14 -14 -14 -14 -14 -14 -14 -14 -14 -15 -16 -16 -16 -16 -16 -16 -16 -16
Height
5842 5845 5850 5855 5861 5863 5867 5868 5870 5873 5874 5875 5876 5876 5877 5877 5878 5880 5879 5879 5881 5881 5882 5883 5884 5884 5885 5886 5887 5887 5887 5887 5887 5887 5887 5886 5885 5884 5883 5882 5881 5880 5879 5878 5877 5876 5875 5873 5873
5836 5839 5844 5847 5853 5859 5865 5863 5867 5869 5873 5873 5874 5875 5876 5876 5877 5877 5878 5878 5880 5881 5881 5883 5884 5884 5885 5886 5887 5887 5887 5888 5887 5887 5886 5885 5885 5884 5882 5882 5881 5880 5878 5877 5876 5874 5873 5872 5870
5829 5832 5838 5840 5848 5855 5862 5858 5861 5869 5870 5871 5872 5874 5874 5874 5875 5876 5876 5878 5879 5881 5881 5882 5884 5884 5886 5886 5887 5887 5887 5887 5887 5886 5886 5884 5883 5882 5881 5880 5879 5878 5877 5876 5874 5873 5871 5870 5868
5821 5826 5831 5833 5843 5855 5856 5854 5860 5866 5867 5868 5869 5871 5872 5873 5874 5875 5875 5877 5880 5880 5881 5882 5883 5884 5885 5886 5886 5886 5886 5886 5885 5885 5884 5884 5883 5881 5880 5879 5878 5877 5875 5874 5872 5871 5869 5867 5866
5812 5816 5821 5827 5837 5849 5848 5852 5859 5861 5863 5865 5865 5868 5869 5870 5872 5873 5875 5876 5877 5879 5881 5881 5883 5884 5885 5885 5885 5885 5885 5885 5884 5884 5883 5882 5881 5880 5879 5877 5876 5875 5874 5872 5870 5868 5867 5865 5863
5804 5811 5815 5823 5835 5844 5842 5849 5855 5856 5861 5862 5861 5865 5867 5868 5869 5872 5874 5876 5875 5878 5879 5881 5882 5883 5883 5884 5884 5884 5884 5884 5883 5882 5881 5880 5879 5878 5877 5876 5874 5872 5871 5869 5867 5865 5863 5862 5860
5796 5803 5811 5820 5832 5837 5838 5847 5850 5852 5855 5855 5859 5862 5864 5866 5867 5868 5871 5874 5874 5876 5878 5879 5881 5882 5883 5883 5883 5883 5883 5882 5881 5881 5879 5878 5877 5876 5875 5873 5871 5869 5867 5865 5864 5862 5860 5858 5856
5791 5797 5806 5814 5825 5833 5834 5843 5844 5847 5850 5854 5852 5859 5862 5862 5863 5865 5867 5870 5873 5874 5877 5878 5880 5881 5881 5882 5882 5882 5882 5881 5880 5879 5878 5876 5874 5873 5872 5870 5867 5865 5864 5862 5860 5858 5856 5854 5852
5781 5787 5798 5810 5819 5827 5830 5838 5840 5844 5847 5848 5849 5854 5858 5856 5860 5862 5864 5867 5871 5873 5875 5877 5879 5879 5880 5880 5880 5880 5880 5879 5878 5876 5876 5874 5872 5869 5867 5865 5863 5861 5859 5858 5856 5854 5852 5849 5846
5771 5783 5796 5812 5818 5821 5826 5833 5836 5839 5842 5844 5844 5850 5853 5854 5856 5858 5861 5864 5868 5871 5873 5875 5877 5877 5878 5878 5878 5878 5878 5877 5876 5874 5873 5871 5868 5866 5863 5861 5858 5857 5855 5853 5851 5849 5846 5844 5841
5768 5779 5795 5806 5808 5808 5819 5826 5832 5834 5839 5840 5842 5847 5848 5850 5852 5854 5857 5861 5865 5869 5871 5872 5874 5875 5876 5876 5875 5875 5875 5874 5872 5871 5870 5868 5865 5863 5860 5857 5854 5852 5850 5848 5845 5843 5840 5838 5834
5762 5775 5786 5792 5801 5804 5819 5822 5829 5828 5834 5837 5842 5844 5845 5847 5848 5850 5853 5857 5861 5865 5868 5869 5871 5872 5873 5873 5873 5872 5872 5870 5868 5868 5866 5864 5861 5859 5856 5853 5850 5848 5845 5843 5840 5837 5834 5831 5827
5756 5768 5774 5787 5797 5804 5813 5817 5821 5823 5831 5832 5838 5839 5841 5843 5844 5847 5850 5853 5857 5861 5864 5865 5868 5868 5869 5869 5869 5869 5867 5866 5866 5864 5862 5860 5857 5854 5851 5848 5845 5842 5839 5836 5833 5830 5827 5823 5819
5752 5758 5768 5785 5795 5801 5808 5812 5816 5823 5825 5829 5832 5834 5837 5839 5841 5844 5846 5850 5855 5858 5861 5863 5865 5866 5866 5866 5866 5865 5864 5863 5861 5859 5858 5855 5852 5849 5845 5842 5838 5835 5832 5830 5826 5823 5819 5815 5811
5740 5753 5764 5781 5789 5795 5800 5808 5810 5820 5822 5825 5828 5830 5833 5835 5837 5840 5844 5849 5852 5855 5857 5860 5861 5862 5863 5863 5862 5861 5860 5858 5857 5855 5852 5850 5847 5843 5839 5835 5832 5828 5825 5821 5818 5814 5810 5806 5802
5736 5750 5761 5774 5783 5789 5797 5803 5809 5814 5818 5821 5825 5827 5829 5831 5834 5838 5842 5845 5848 5851 5853 5856 5857 5858 5858 5857 5857 5856 5855 5853 5851 5849 5846 5843 5840 5836 5832 5828 5824 5821 5817 5813 5809 5805 5800 5796 5792
5733 5748 5758 5770 5777 5784 5792 5797 5806 5808 5814 5818 5821 5823 5826 5828 5831 5835 5838 5842 5845 5847 5850 5851 5853 5853 5853 5853 5852 5851 5850 5848 5845 5843 5840 5836 5832 5828 5824 5820 5816 5812 5808 5804 5799 5794 5789 5785 5781
5733 5746 5755 5767 5774 5781 5786 5793 5801 5805 5810 5814 5816 5819 5822 5825 5828 5832 5836 5838 5842 5843 5846 5847 5848 5848 5848 5848 5847 5845 5843 5841 5838 5835 5832 5829 5824 5820 5816 5811 5807 5802 5797 5792 5787 5782 5778 5775 5772
5732 5742 5750 5761 5770 5777 5783 5789 5798 5802 5806 5810 5813 5816 5818 5822 5825 5828 5831 5835 5837 5839 5841 5842 5843 5843 5842 5842 5840 5839 5837 5834 5831 5828 5825 5820 5815 5811 5806 5801 5796 5791 5785 5780 5775 5770 5766 5763 5760
5727 5738 5743 5758 5766 5773 5779 5785 5793 5797 5802 5806 5809 5812 5815 5818 5822 5824 5828 5831 5832 5834 5836 5837 5837 5837 5836 5835 5834 5832 5829 5826 5823 5820 5816 5811 5806 5801 5796 5790 5785 5779 5773 5767 5761 5757 5753 5751 5748
5724 5732 5742 5754 5763 5770 5776 5780 5790 5794 5798 5802 5805 5808 5811 5815 5818 5821 5823 5825 5827 5829 5830 5831 5831 5830 5830 5828 5826 5824 5821 5818 5815 5811 5806 5802 5797 5791 5785 5779 5774 5767 5761 5755 5749 5746 5743 5740 5738
5722 5730 5738 5752 5759 5766 5773 5779 5785 5789 5794 5798 5802 5804 5808 5811 5815 5817 5818 5821 5822 5823 5824 5824 5824 5824 5822 5821 5819 5816 5813 5810 5806 5802 5797 5793 5787 5780 5775 5769 5762 5757 5752 5748 5743 5738 5735 5732 5732
5722 5728 5738 5750 5756 5762 5769 5775 5781 5786 5790 5795 5798 5801 5805 5807 5811 5812 5814 5815 5817 5817 5817 5818 5817 5816 5814 5812 5810 5808 5805 5801 5797 5793 5788 5783 5778 5772 5764 5759 5754 5750 5745 5740 5736 5732 5729 5728 5728
5721 5729 5739 5746 5752 5759 5765 5772 5777 5782 5787 5791 5794 5797 5800 5803 5806 5807 5808 5810 5811 5811 5811 5810 5809 5808 5806 5803 5801 5799 5796 5792 5787 5784 5779 5774 5769 5762 5757 5752 5747 5743 5738 5734 5731 5728 5726 5726 5725
5720 5728 5736 5744 5750 5758 5764 5769 5775 5779 5783 5788 5790 5793 5796 5798 5800 5802 5803 5804 5805 5804 5804 5803 5801 5799 5797 5795 5792 5789 5785 5781 5778 5774 5769 5764 5759 5754 5749 5744 5740 5736 5732 5729 5726 5725 5724 5723 5722
5721 5729 5736 5741 5748 5756 5761 5765 5772 5776 5780 5783 5786 5788 5791 5794 5796 5797 5798 5798 5797 5797 5796 5794 5793 5791 5788 5786 5782 5779 5776 5772 5768 5764 5759 5754 5749 5746 5742 5737 5732 5729 5727 5725 5722 5721 5720 5720 5719
5724 5730 5737 5743 5749 5755 5760 5765 5771 5773 5777 5780 5782 5785 5787 5789 5790 5791 5791 5790 5790 5789 5787 5786 5784 5781 5779 5775 5772 5769 5765 5761 5757 5752 5748 5745 5741 5737 5734 5730 5726 5723 5721 5720 5718 5717 5716 5715 5715
5727 5734 5740 5744 5749 5754 5758 5762 5767 5770 5773 5776 5778 5780 5781 5782 5783 5783 5783 5782 5781 5780 5778 5776 5773 5771 5768 5765 5762 5758 5755 5750 5746 5741 5738 5735 5732 5729 5726 5723 5720 5717 5715 5714 5713 5712 5711 5711 5711
5730 5734 5740 5744 5748 5751 5756 5760 5764 5766 5769 5770 5772 5774 5774 5775 5775 5774 5774 5773 5771 5769 5767 5765 5762 5760 5757 5754 5751 5747 5742 5738 5735 5731 5729 5726 5723 5721 5719 5716 5713 5710 5708 5707 5706 5706 5705 5705 5705
5730 5734 5738 5743 5748 5750 5753 5758 5760 5762 5764 5765 5765 5766 5766 5766 5765 5764 5763 5762 5760 5758 5756 5754 5752 5749 5746 5743 5739 5735 5732 5729 5725 5723 5720 5717 5715 5713 5711 5709 5706 5702 5700 5700 5699 5698 5698 5698 5698
Wind_Speed
43 40 37 33 30 27 20 20 18 14 16 13 13 12 11 10 8 6 6 7 7 7 7 7 7 7 6 6 5 4 2 2 2 4 5 7 8 10 11 12 12 12 13 14 14 15 16 16 17
45 43 40 39 35 31 22 24 24 21 17 18 16 14 13 12 9 6 7 9 9 8 8 8 7 7 6 4 3 2 1 1 3 5 7 8 10 11 11 11 12 14 14 15 16 17 18 18 19
47 46 44 43 38 34 23 28 31 21 20 20 20 17 15 15 12 8 8 10 9 9 9 9 8 8 6 3 2 1 2 3 4 7 9 11 12 12 12 12 13 14 15 16 17 18 19 20 21
52 50 47 47 42 29 27 33 33 23 24 23 23 21 18 16 14 11 11 12 10 10 10 10 9 8 6 4 3 3 4 5 7 8 9 11 13 13 13 13 14 15 17 18 19 20 21 22 23
56 54 52 50 43 31 31 30 27 22 26 26 25 21 21 18 15 13 15 14 14 13 12 10 9 7 6 5 4 5 6 7 8 9 10 11 12 13 14 14 16 18 19 20 21 22 22 22 23
60 56 55 52 43 33 37 30 23 25 23 25 27 24 24 20 18 16 18 18 17 16 14 12 10 8 7 6 6 6 8 9 11 12 13 14 15 15 16 17 18 20 21 22 23 23 24 24 24
63 59 56 50 41 36 38 28 24 27 33 31 27 27 26 22 21 20 20 21 20 18 16 13 10 9 8 7 7 8 9 11 12 13 15 16 16 18 19 22 23 23 24 24 24 25 26 27 27
63 61 56 51 42 38 38 25 28 28 22 23 30 25 26 25 24 23 22 24 23 20 17 13 11 10 9 8 8 8 10 11 13 14 16 17 20 22 23 25 26 27 27 26 26 26 26 27 28
63 65 60 52 45 38 38 28 29 26 27 30 31 27 26 28 24 23 23 24 24 21 17 14 12 11 10 8 8 9 11 12 14 16 18 21 23 25 27 29 29 29 28 28 27 28 28 30 31
67 63 58 47 42 40 40 30 31 29 27 27 28 24 25 27 25 23 21 23 25 22 18 15 14 12 10 9 9 10 12 14 16 18 20 23 24 26 28 30 31 30 29 29 28 30 31 32 34
66 61 51 43 49 50 44 35 31 32 27 27 26 23 26 26 24 23 24 24 25 23 19 16 15 13 11 11 10 12 14 16 18 20 23 24 24 26 28 30 31 30 30 31 32 33 35 36 39
63 59 53 53 50 49 36 35 32 35 28 25 21 23 25 24 23 24 25 26 27 24 21 17 14 13 13 12 12 14 15 18 20 23 25 26 27 27 29 31 32 32 32 34 35 37 40 42 44
63 56 61 56 49 43 37 36 37 36 27 27 22 23 23 23 24 23 24 26 27 24 21 16 16 13 14 14 14 16 18 20 21 24 26 28 28 28 30 32 33 34 35 36 38 41 44 46 48
62 60 59 52 46 43 39 38 37 32 31 27 24 22 23 24 24 22 25 27 25 24 21 19 17 14 16 17 17 18 20 22 23 26 28 30 30 32 32 34 36 37 38 40 42 45 47 49 50
62 62 57 48 46 44 45 40 40 31 30 27 26 23 23 25 24 24 25 26 26 24 21 19 17 17 21 19 19 20 22 24 27 29 30 32 34 36 36 38 40 41 42 45 47 49 51 53 54
65 63 56 50 47 46 43 41 37 33 31 28 26 24 24 25 24 25 26 27 26 24 21 19 19 21 20 19 22 23 25 27 29 31 33 34 38 40 40 40 42 45 47 49 51 54 56 56 53
67 61 55 50 48 47 44 43 36 35 31 28 27 24 24 25 25 30 31 30 28 25 22 21 21 21 21 22 23 25 28 31 32 34 35 38 43 44 44 44 46 48 50 52 55 57 56 50 46
64 58 53 50 48 46 44 43 38 36 32 30 28 24 25 27 27 30 30 29 27 25 23 22 22 23 24 24 26 29 31 34 35 37 38 43 45 46 47 48 49 51 55 58 57 50 46 46 46
56 53 52 50 48 46 43 43 37 35 33 30 28 26 27 28 29 29 31 30 27 25 25 24 24 25 26 28 30 33 34 36 38 39 42 46 48 49 49 51 53 56 57 53 53 55 53 50 48
55 51 54 51 48 45 43 42 37 37 34 32 30 28 29 29 28 30 30 29 27 27 26 25 26 27 29 32 34 36 38 40 40 42 46 49 50 52 54 56 57 55 59 60 57 53 50 47 42
53 52 53 51 45 43 42 42 37 37 34 32 30 29 29 29 30 30 29 29 29 29 28 29 30 31 33 35 37 39 40 42 43 47 51 52 52 55 57 55 58 61 57 49 44 42 41 37 32
53 53 55 46 45 43 40 40 38 37 35 33 31 30 30 30 29 29 30 30 31 31 31 32 33 34 36 38 39 41 42 43 47 52 53 53 55 56 55 59 54 42 38 39 38 36 32 25 24
49 52 49 44 43 43 41 40 37 37 34 32 30 29 29 29 30 30 30 31 31 32 33 34 35 37 39 40 41 43 44 47 52 54 54 54 53 55 57 48 40 41 39 36 36 30 23 19 19
45 45 41 43 43 42 41 39 38 33 32 31 29 28 29 29 30 31 31 32 32 33 34 36 38 39 41 43 44 45 48 53 55 53 52 54 54 53 46 41 40 37 35 35 34 26 18 16 16
42 42 41 41 42 41 39 39 37 34 32 28 28 27 29 31 32 32 32 33 33 35 37 38 40 42 44 45 47 50 54 55 52 53 54 53 52 46 39 39 36 33 33 31 26 19 15 15 15
37 38 40 42 42 39 37 38 36 31 29 27 28 29 30 31 31 31 32 34 35 37 39 41 42 44 46 49 52 55 54 51 54 53 52 51 45 38 39 36 32 30 30 26 21 16 14 15 14
32 34 35 36 35 33 34 33 29 27 27 25 26 26 28 29 30 32 33 36 38 40 42 43 45 47 51 53 55 53 53 55 54 53 50 45 39 39 36 30 30 30 29 26 22 19 17 16 16
26 26 28 28 29 28 29 30 26 25 23 24 25 26 28 30 32 35 37 40 41 43 44 47 50 52 53 52 52 53 55 54 52 49 44 38 38 37 29 29 31 31 29 26 24 22 20 19 20
21 23 24 26 25 26 26 26 25 25 25 26 28 29 32 34 36 38 40 42 44 47 50 51 52 51 50 52 54 55 54 49 45 41 38 39 37 29 28 29 32 30 28 27 25 25 24 24 23
20 22 22 23 22 22 23 23 25 26 27 30 33 35 36 37 39 42 45 47 49 51 51 51 50 50 52 54 55 53 48 42 38 40 40 37 30 28 28 30 31 31 28 29 28 28 27 27 28
Wind_Direction
221 223 223 225 226 228 227 245 248 261 261 270 277 280 282 297 315 276 252 229 205 193 182 178 170 151 148 128 120 111 94 54 32 20 4 357 347 342 339 337 335 335 335 332 331 330 329 327 322
221 225 225 226 227 228 232 246 252 254 265 267 266 274 282 286 299 279 240 217 209 200 184 177 173 160 156 151 149 140 138 341 337 341 340 340 338 337 335 332 331 332 332 331 329 327 324 322 319
221 225 228 230 228 226 231 243 248 254 254 261 262 263 271 279 287 267 226 215 211 206 186 180 174 170 177 182 198 227 279 300 315 324 329 331 330 333 333 333 332 332 329 327 324 323 323 322 320
221 226 228 232 232 229 234 244 250 253 253 256 259 258 263 270 272 258 223 213 201 202 193 185 184 189 198 220 256 278 292 312 320 325 329 329 328 329 328 326 325 325 323 322 321 321 321 319 316
220 223 227 231 232 227 237 251 252 249 246 247 250 253 252 261 263 259 229 212 205 206 204 199 198 203 222 246 270 284 300 313 320 324 328 329 326 324 324 322 321 319 318 317 316 316 316 315 313
222 224 228 232 233 233 242 253 251 234 238 240 245 242 247 255 257 260 237 219 208 215 211 210 212 220 240 261 278 292 302 309 318 322 325 325 324 323 322 321 319 316 314 312 312 313 313 314 313
223 224 227 230 232 235 244 245 235 228 238 234 241 238 242 247 251 254 245 226 218 215 221 218 224 237 254 267 280 295 305 313 319 323 324 325 325 324 321 319 315 312 310 308 309 311 313 312 309
222 225 225 227 227 231 240 225 230 228 235 236 239 226 239 244 245 246 244 230 227 216 225 226 234 248 260 272 286 298 308 318 324 327 328 330 328 325 318 313 309 307 306 307 308 308 309 309 308
220 223 224 224 224 228 233 221 229 229 231 233 235 227 229 236 242 239 243 232 227 227 225 234 243 259 267 272 285 301 310 320 325 326 329 329 325 320 315 309 307 307 306 306 306 306 307 307 305
220 222 224 223 227 228 230 222 227 230 232 237 238 234 230 231 236 235 242 236 227 230 228 236 247 259 264 274 287 305 315 320 326 327 328 328 327 322 317 313 310 307 305 304 304 305 306 305 304
218 222 221 217 223 226 225 223 226 233 233 236 238 236 233 230 232 237 238 233 225 229 232 237 249 263 265 272 289 302 315 320 326 323 326 326 325 323 318 313 309 304 302 302 303 303 302 302 302
216 218 216 216 220 227 225 226 225 233 234 243 243 241 240 235 237 239 234 228 221 226 232 239 253 258 265 277 287 300 310 319 325 322 326 324 323 322 317 312 307 303 300 299 300 301 302 302 302
214 213 219 218 219 222 219 223 224 232 233 242 236 241 239 238 238 235 234 220 220 226 232 243 254 260 267 270 286 298 313 317 314 319 320 320 320 319 316 311 305 301 298 298 298 298 299 301 301
212 213 218 216 220 223 222 222 225 228 233 239 239 241 241 242 241 236 221 214 216 225 232 242 251 259 273 277 286 298 306 310 312 314 314 316 318 316 311 306 302 298 296 296 296 297 298 299 299
208 212 216 212 214 219 222 223 227 226 231 236 240 241 246 246 240 225 215 213 221 227 235 242 252 257 259 270 282 295 304 309 310 309 310 313 314 312 307 301 297 297 297 297 297 298 299 301 302
210 211 212 210 212 216 220 223 226 227 230 234 239 240 245 242 231 213 208 214 224 230 237 249 259 258 265 277 286 292 301 302 305 305 307 310 309 307 303 300 298 297 296 296 298 301 302 305 303
210 211 210 209 210 214 218 224 223 226 228 233 238 239 242 232 224 211 214 219 227 232 242 252 260 267 272 277 285 292 298 303 302 304 305 306 306 304 302 300 298 296 296 298 299 300 302 301 299
208 209 211 210 211 214 216 223 222 226 228 232 236 236 236 226 220 216 220 226 231 234 243 254 261 267 273 280 287 293 298 301 302 303 304 304 303 302 301 299 298 298 299 301 303 303 301 299 297
205 204 208 208 211 212 217 222 221 227 230 233 236 233 233 228 223 219 224 228 232 240 248 254 262 270 276 282 290 294 296 299 299 300 303 303 302 301 301 301 301 301 303 303 301 299 296 293 293
198 200 207 207 211 212 216 221 221 226 229 233 236 233 232 231 226 226 228 232 237 244 251 258 265 272 279 285 290 294 297 298 297 301 302 301 302 304 304 304 305 306 304 301 299 298 296 295 293
193 197 207 207 207 213 216 222 219 226 230 233 235 234 233 231 228 228 229 234 241 247 255 262 269 274 281 286 289 292 294 296 298 302 301 300 301 303 305 307 307 305 305 306 305 302 299 296 290
194 201 208 203 207 213 216 220 219 227 229 233 234 234 235 234 234 231 232 236 243 252 257 263 271 278 282 284 287 290 292 293 297 298 299 301 304 305 306 308 308 311 313 312 310 309 305 294 291
195 201 204 200 206 211 215 220 222 226 230 234 235 237 236 235 233 233 237 241 247 254 261 268 272 276 279 283 286 288 290 294 296 297 300 304 304 306 307 308 309 309 309 312 311 307 305 301 295
195 200 198 200 205 210 215 221 223 226 232 235 236 237 237 237 237 238 241 246 252 259 265 270 274 277 281 283 285 288 290 293 295 299 302 303 304 305 305 306 309 308 309 310 306 303 302 300 298
193 196 197 200 206 212 216 222 225 229 233 235 237 239 239 240 241 244 248 254 260 265 269 272 275 278 280 283 285 287 289 293 298 300 301 303 302 302 302 307 306 306 308 308 306 302 297 297 300
192 194 199 202 207 211 217 224 227 232 236 235 236 238 240 242 246 251 256 261 265 268 271 273 276 278 280 282 285 288 295 298 298 300 301 300 300 297 302 305 305 306 303 303 303 293 287 287 290
193 194 199 204 209 212 220 227 231 236 239 240 241 243 246 249 253 257 261 264 266 269 271 274 276 277 280 283 288 295 297 298 298 298 297 299 297 297 300 302 305 303 298 298 294 284 270 272 279
187 196 201 205 209 214 221 227 231 233 237 240 242 244 248 253 258 261 263 265 268 271 272 273 276 279 285 292 295 296 297 297 296 296 297 296 294 295 295 302 303 298 297 295 289 277 267 269 273
186 191 201 206 211 214 221 228 230 233 236 241 246 251 254 257 260 263 266 267 269 270 272 277 282 289 292 293 295 296 295 294 296 295 294 293 293 287 294 304 303 298 294 291 285 277 263 264 271
186 194 200 209 216 220 226 230 233 238 241 244 247 251 254 257 260 262 264 266 270 275 280 285 288 290 291 293 294 294 292 292 291 291 292 291 286 286 295 303 303 303 287 285 281 276 268 265 260